Theta_e
313 313 313 313 313 312 312 312 311 310 309 309 308 311 306 305 301 309 312 313 310 305 298 301 299 296 297 301 299 300 298 297 298 297 298 296 297 296 295 295 294 294 294 294 293 294 291 293 291 293 294 294 296 298 297 299 297 297 296 298 299 301 295 293 294 299 301 304 306 307 307 305 303 305 308 307 304 305 304 304 306 303 304 301 301 298 304
313 313 313 313 313 312 312 312 311 311 309 310 310 308 304 305 304 306 311 313 311 302 294 294 296 296 298 298 297 299 298 298 296 297 297 297 296 295 295 296 297 294 296 295 292 295 288 293 292 292 295 293 299 298 297 298 297 295 297 295 301 293 297 294 292 292 295 297 301 303 306 305 303 304 306 307 307 307 306 305 307 302 304 304 301 295 302
313 313 313 313 313 312 312 312 311 311 311 312 310 303 304 304 307 306 307 310 307 298 299 297 296 295 295 295 294 295 296 298 298 297 296 299 297 296 294 296 296 295 296 293 294 294 292 289 295 293 294 294 299 298 297 299 297 298 300 299 301 295 295 294 288 286 286 287 287 291 296 299 303 305 306 305 305 305 305 301 304 297 305 306 303 302 309
313 313 313 313 312 312 312 312 311 311 311 310 310 305 306 302 299 303 305 306 304 303 304 301 297 295 295 294 294 295 294 297 298 299 297 298 298 297 296 297 298 296 295 293 293 292 295 292 291 293 291 294 296 298 298 298 298 299 299 300 299 295 296 295 292 292 291 294 296 298 300 299 298 301 302 303 304 306 306 306 302 299 304 303 306 307 309
312 313 313 312 312 312 312 311 311 311 311 311 310 308 305 306 299 298 295 303 302 299 301 299 299 295 297 292 294 292 293 294 296 298 294 298 297 296 297 296 293 293 294 292 291 293 293 295 293 293 293 295 296 298 298 298 299 299 298 300 298 295 292 293 295 295 296 298 299 299 298 295 297 298 299 302 302 303 303 301 301 308 303 298 307 310 306
312 313 313 313 312 312 311 311 311 311 311 310 312 304 306 298 299 301 301 295 292 296 295 298 297 297 298 294 295 292 291 292 290 295 298 298 299 293 295 297 296 296 294 294 290 292 292 293 291 295 295 295 297 296 298 297 299 299 298 300 296 293 289 294 294 294 295 297 297 298 298 298 298 298 299 299 301 302 301 303 305 308 303 300 308 311 308
313 313 313 313 312 312 312 312 311 311 309 310 311 302 304 304 302 301 303 296 297 297 297 298 297 295 296 294 294 292 291 290 293 293 294 296 295 296 290 293 295 295 296 295 292 293 289 289 294 294 294 293 294 292 295 298 299 298 297 298 299 295 290 292 293 292 294 295 296 297 296 297 298 298 299 300 300 301 302 303 305 306 305 308 310 310 309
313 313 313 313 313 313 312 312 312 311 308 312 308 304 301 298 298 297 302 301 299 299 298 296 295 294 295 292 292 293 292 291 293 295 294 291 293 298 294 294 296 294 294 295 293 294 294 293 291 295 295 294 295 294 295 294 298 298 295 295 297 293 291 293 293 292 292 294 296 297 296 296 295 297 298 299 300 301 302 302 303 305 305 306 307 308 309
312 313 313 313 313 313 312 312 311 310 310 309 305 304 306 306 307 305 299 297 298 298 297 296 295 293 294 292 294 293 293 292 294 294 297 295 293 295 293 295 295 296 296 296 295 298 297 297 296 297 296 291 296 293 295 297 294 296 295 296 295 294 290 294 292 288 288 293 294 295 297 297 296 296 297 298 299 298 300 301 304 304 304 306 307 305 306
312 313 313 313 313 313 313 312 312 310 309 309 308 303 308 308 308 308 303 295 298 295 297 297 296 291 295 295 294 293 293 294 295 293 297 298 298 297 296 296 295 294 294 294 295 298 298 298 299 300 300 300 300 300 298 298 295 294 294 297 293 293 291 289 289 286 287 292 295 296 296 295 293 294 297 300 300 302 303 305 308 312 313 307 304 306 319
312 313 313 313 313 314 314 314 313 311 313 308 306 305 307 304 303 304 303 295 296 297 296 295 295 295 296 296 295 296 295 295 296 291 292 296 297 300 299 297 295 293 293 296 301 302 302 302 302 302 301 300 299 299 299 299 299 298 296 295 294 294 292 289 292 286 287 292 294 296 292 286 288 301 304 303 300 302 301 303 311 315 314 309 315 316 319
312 313 313 313 314 314 314 314 314 311 310 314 314 307 310 310 308 305 300 294 293 298 295 293 294 296 296 296 296 295 294 295 295 297 293 295 297 299 299 298 298 293 301 304 304 304 304 303 303 303 302 301 300 300 299 298 298 301 300 295 293 292 292 290 292 287 286 291 292 288 284 287 300 309 309 308 306 305 303 310 313 314 314 314 315 317 317
312 313 313 314 314 314 314 314 313 313 311 316 313 308 311 313 307 304 302 297 293 295 294 295 298 298 297 296 295 296 297 297 298 298 298 297 297 298 299 298 297 299 303 302 302 301 297 296 297 298 297 299 299 299 298 298 298 299 299 298 294 291 290 291 289 290 290 288 287 280 284 297 306 308 310 313 311 308 311 307 309 311 312 313 313 315 315
313 313 314 314 314 314 314 314 313 314 312 313 314 312 313 311 306 303 301 296 295 298 298 297 297 296 296 296 296 296 297 296 298 299 296 299 297 297 300 301 302 304 304 304 301 300 296 296 291 292 293 296 295 294 297 298 298 297 297 297 296 294 292 291 287 292 284 287 287 287 296 296 300 304 308 309 307 311 309 302 303 310 311 311 312 313 313
313 313 314 314 314 314 314 314 314 313 312 310 317 314 313 313 310 305 305 302 295 298 299 293 296 296 297 297 297 295 295 296 295 295 299 300 298 300 300 302 304 304 305 301 297 296 292 291 285 285 288 288 282 285 294 291 298 299 298 297 297 296 291 292 288 288 291 286 285 286 287 284 294 306 309 311 311 311 310 308 303 308 310 311 310 309 310
313 314 314 314 314 314 314 314 314 313 313 310 315 314 315 316 314 310 305 301 298 292 297 300 301 299 297 297 298 295 293 294 295 295 296 297 299 300 302 304 305 305 303 300 297 294 292 286 284 284 282 283 287 285 284 291 290 297 298 298 297 296 296 294 289 288 289 287 283 283 283 289 302 304 305 308 310 310 313 306 301 305 309 309 309 307 307
313 313 314 314 314 314 314 314 314 313 313 311 313 315 313 316 312 309 304 302 300 295 303 303 302 301 299 297 298 297 297 294 295 292 292 294 296 299 301 304 305 303 301 297 298 293 289 286 286 285 286 287 284 283 287 285 285 288 295 296 294 292 291 291 287 287 288 288 285 283 289 289 300 304 304 308 310 310 309 295 295 302 307 308 308 305 304
313 313 314 314 314 314 314 314 314 313 312 311 314 313 312 316 317 314 308 303 299 298 302 303 301 298 297 298 296 299 300 298 298 298 296 297 298 298 298 300 298 302 302 295 295 289 287 286 283 283 283 290 288 285 281 285 283 286 288 288 287 287 289 289 285 287 288 287 286 289 291 299 305 304 306 309 312 309 297 291 298 305 308 308 307 306 305
313 313 314 314 314 314 314 314 313 313 313 311 316 314 313 316 315 314 309 304 302 295 303 306 306 302 304 304 302 301 300 299 298 294 294 294 296 300 300 300 301 296 301 295 294 290 286 286 291 287 284 286 286 283 286 283 284 292 292 287 287 289 290 289 290 287 286 287 285 285 290 299 303 307 308 307 303 295 295 298 303 306 307 308 306 304 305
313 313 313 313 313 314 314 313 313 313 313 311 313 310 312 315 316 315 309 303 303 300 303 304 305 302 305 302 300 299 300 300 300 296 295 292 301 301 299 294 300 300 298 297 289 293 287 285 286 287 285 286 287 287 285 286 290 288 288 291 288 288 286 285 286 289 290 289 285 284 281 297 303 305 306 305 298 297 299 302 305 307 306 305 305 304 304
313 313 313 313 313 313 313 313 313 313 313 313 311 313 311 315 316 316 315 309 304 299 302 308 307 306 306 305 305 305 302 298 299 296 299 299 302 300 288 289 295 296 292 294 286 288 289 286 289 286 288 286 288 288 284 285 287 295 294 291 291 295 286 286 288 292 285 285 282 284 295 299 305 303 297 300 302 304 304 304 304 307 307 305 306 306 306
312 313 313 313 313 313 313 313 312 312 313 313 311 314 309 313 316 316 316 314 306 303 305 309 311 309 309 309 308 309 307 306 306 305 300 299 303 300 298 299 299 298 299 300 294 293 294 291 291 287 286 287 291 286 287 285 283 287 295 294 285 294 290 292 286 296 292 290 294 300 301 302 304 305 303 304 306 305 304 304 304 306 305 307 305 305 306
312 312 312 312 312 312 312 312 312 312 312 313 314 314 310 312 313 316 314 307 310 309 311 310 311 311 311 310 311 312 312 313 311 308 305 300 298 301 299 298 297 301 301 301 295 293 293 292 287 291 288 288 286 286 288 288 286 287 286 291 290 296 297 299 296 294 298 299 299 301 301 303 303 306 307 305 304 306 306 306 304 305 306 307 305 306 307
312 312 312 312 312 312 312 312 311 312 312 313 314 314 312 312 314 313 312 310 306 302 308 309 306 303 305 306 311 314 313 311 311 311 311 307 297 299 302 303 303 301 301 303 304 296 295 294 293 294 286 291 291 286 284 285 285 288 287 288 291 295 297 295 290 293 290 288 298 298 299 301 302 305 306 307 308 307 307 306 307 306 307 307 308 308 308
312 312 312 312 312 312 312 311 311 311 313 312 314 314 315 312 313 313 309 302 303 303 299 302 304 307 309 311 313 312 313 314 314 313 310 308 305 299 298 302 305 301 300 302 304 300 299 292 293 291 286 294 293 286 291 287 287 292 285 288 289 289 299 293 293 292 290 291 297 298 300 301 304 306 304 305 304 305 307 307 307 307 308 309 308 310 310
311 312 312 312 312 312 312 312 311 311 312 312 314 314 311 313 316 315 314 310 309 306 299 299 303 311 312 310 307 310 314 313 312 312 311 310 308 308 305 306 305 307 305 304 303 298 296 295 295 293 289 291 299 289 288 292 291 294 288 287 292 294 299 288 293 291 295 298 299 299 299 301 305 306 306 305 304 304 305 306 307 308 308 308 309 311 310
311 311 311 311 312 312 312 312 312 311 311 311 314 316 314 315 315 313 310 307 304 301 304 300 304 308 310 307 311 313 312 312 312 311 311 310 309 309 308 306 304 304 303 303 303 300 300 297 295 292 294 294 298 295 296 294 293 289 288 292 297 295 289 294 293 289 289 289 292 296 291 292 298 300 303 305 306 305 305 306 307 308 307 308 308 310 312
311 311 311 312 311 311 312 311 312 312 311 311 314 316 317 315 316 316 315 312 307 300 301 302 303 306 310 307 311 312 312 312 311 310 309 309 309 308 307 306 306 303 302 300 296 297 296 293 293 298 298 298 295 293 299 299 298 293 291 292 296 291 291 292 287 286 287 294 296 298 298 298 299 302 304 306 306 306 305 305 306 307 308 309 308 308 310
311 311 311 311 311 311 311 312 311 312 311 311 317 315 315 317 318 317 316 316 313 307 304 305 307 307 300 303 312 311 312 312 310 309 309 308 309 308 307 306 305 305 304 302 300 299 297 297 299 297 295 299 297 292 294 289 289 285 290 295 297 298 299 296 295 295 296 298 298 299 299 297 300 303 304 305 307 307 306 307 308 309 310 309 309 310 308
311 311 311 311 311 311 311 312 312 312 311 316 315 314 311 312 318 317 315 316 315 310 303 302 301 303 309 310 308 309 309 310 310 309 308 307 307 307 308 307 306 307 304 301 301 297 299 299 301 302 303 306 296 294 291 291 289 290 295 298 300 301 300 300 300 296 294 299 300 300 300 301 303 304 304 306 307 308 307 308 309 310 310 310 309 310 311
311 311 311 311 311 311 311 311 312 310 310 316 314 309 307 304 312 318 315 316 316 310 305 303 302 307 306 309 310 308 308 309 310 308 307 308 308 309 309 309 307 307 304 303 302 300 301 299 300 298 303 302 300 293 290 289 286 289 294 296 298 299 299 299 301 301 300 300 300 301 302 302 303 303 304 305 305 306 308 310 311 312 311 310 310 311 310
311 310 311 311 310 310 310 311 311 310 315 315 312 310 312 311 316 318 315 316 316 309 304 302 302 304 303 305 309 312 311 309 308 309 310 311 308 310 311 310 306 308 306 304 301 303 298 301 301 300 298 300 301 294 293 289 287 288 295 296 299 299 300 300 300 301 301 302 300 299 298 299 301 299 299 303 305 307 308 310 311 311 311 311 311 311 312
310 310 310 310 310 310 311 311 311 312 316 315 310 309 310 308 310 314 316 317 313 308 308 303 300 302 301 303 308 309 310 309 308 307 306 311 310 310 308 312 310 309 308 305 298 297 301 303 304 297 299 305 297 295 292 289 290 295 297 298 299 300 299 300 301 301 301 301 300 295 294 296 299 302 304 305 305 306 307 309 311 310 310 310 309 310 312
310 310 310 310 310 310 311 311 311 310 310 310 312 315 319 309 312 310 318 316 311 310 308 302 300 300 302 309 303 309 311 306 306 307 303 311 312 308 308 307 309 304 308 303 302 303 304 303 298 299 302 298 300 293 288 291 295 296 297 298 299 299 300 299 299 299 300 300 301 301 301 302 303 304 304 303 304 305 307 308 310 310 309 309 308 309 311
310 309 310 309 310 311 311 311 313 313 313 314 316 319 315 311 312 314 315 314 305 304 304 304 304 299 300 302 301 304 311 307 304 309 304 309 312 307 308 304 306 298 303 309 305 302 299 298 301 297 293 299 294 288 291 294 296 297 298 297 298 299 298 297 297 299 299 300 300 300 302 302 300 299 299 300 301 303 304 305 308 309 309 309 311 311 311
309 308 309 310 310 312 315 312 313 313 312 313 315 314 313 313 314 319 318 317 310 304 301 302 302 299 301 295 296 304 311 305 309 310 308 309 307 310 307 305 299 304 308 303 298 300 297 302 301 292 297 291 289 292 294 297 297 297 298 297 299 299 298 298 298 299 299 300 300 300 300 300 299 298 299 300 300 302 303 304 305 307 309 310 311 312 312
310 310 311 311 314 314 312 315 317 315 314 315 316 316 315 316 316 316 314 311 313 312 304 303 300 302 303 302 305 308 307 300 306 304 306 304 302 308 305 303 299 303 301 299 300 297 300 305 298 291 290 289 291 299 299 299 300 299 300 300 300 301 301 300 300 300 299 299 299 298 299 298 298 298 298 298 299 301 301 301 303 304 305 308 311 312 312
311 311 316 315 314 313 314 314 315 316 316 314 314 312 310 310 306 306 306 304 307 308 306 305 300 305 310 305 300 308 305 303 307 302 304 305 302 302 306 302 303 302 294 296 299 305 303 300 296 291 292 298 301 301 301 301 301 303 303 302 302 302 302 302 301 299 297 296 296 297 298 298 297 298 297 297 299 299 300 302 303 305 306 308 310 313 312
309 316 316 317 315 315 314 315 317 315 315 315 315 309 306 308 305 302 304 305 305 300 305 303 303 307 305 304 305 311 306 304 303 303 298 305 302 297 304 294 302 301 294 295 299 306 295 296 295 293 289 295 296 299 303 302 303 304 305 303 303 303 303 302 302 300 298 298 298 299 299 297 296 296 298 298 299 300 301 302 302 303 305 307 309 313 312
316 315 316 316 316 315 316 316 314 315 314 308 310 309 305 307 302 298 308 300 300 305 305 299 308 308 309 305 303 303 310 307 300 299 300 301 307 298 302 301 303 298 289 290 296 304 295 288 293 291 289 294 296 301 302 303 303 304 305 305 304 304 304 303 303 303 303 302 302 302 302 301 301 299 298 298 298 298 299 301 301 302 303 305 308 310 312
317 317 317 315 317 317 317 316 316 314 310 307 307 308 307 298 307 308 305 300 299 300 309 305 308 307 310 309 308 303 310 312 313 311 306 300 308 307 300 295 305 295 289 290 300 301 297 293 291 290 290 296 298 300 302 302 301 302 304 305 304 304 303 304 304 304 303 302 302 302 303 303 302 300 300 299 299 299 300 300 301 302 302 303 305 307 312
319 318 319 318 319 318 316 313 312 309 309 311 303 294 299 301 305 305 304 295 296 301 306 306 301 302 303 308 308 309 309 315 313 309 304 298 306 302 298 300 302 291 287 297 302 300 295 288 288 289 296 299 300 301 301 301 301 302 302 305 304 304 304 304 303 303 304 303 303 302 302 302 302 301 301 300 300 299 299 300 300 301 302 302 305 307 310
304 311 317 317 316 314 316 306 312 311 296 295 293 290 299 293 297 297 298 304 310 304 305 311 308 311 312 314 312 312 309 314 307 305 302 299 305 304 300 295 294 288 294 301 299 293 289 288 287 292 298 299 300 300 301 301 302 302 303 304 306 305 304 304 304 303 304 303 303 302 302 302 302 302 302 301 300 300 300 302 302 301 302 302 302 304 307
318 317 314 316 310 314 314 293 311 306 296 295 293 289 297 296 297 301 298 299 303 302 306 301 303 302 298 312 307 308 310 309 309 307 304 307 300 299 297 290 291 300 302 297 294 288 289 290 294 296 299 301 301 301 301 302 302 302 302 303 304 304 304 304 305 305 304 304 303 303 303 302 302 302 302 302 301 300 299 300 301 302 302 302 301 302 305
315 312 309 307 302 307 298 289 304 295 290 296 297 298 298 295 297 300 297 304 303 300 305 305 305 304 302 312 311 311 307 303 310 301 298 302 298 300 296 293 299 298 294 289 292 292 291 291 297 299 299 300 300 301 302 302 303 302 302 302 302 303 303 303 303 304 304 303 303 303 302 302 302 302 302 301 302 301 300 299 301 301 301 300 300 300 302
313 306 303 296 290 295 295 292 294 291 301 303 301 302 301 301 301 301 305 307 304 304 303 304 304 305 303 311 304 303 307 307 303 303 303 302 295 291 299 302 300 292 292 291 286 285 288 293 296 298 300 301 301 301 302 302 303 304 304 301 301 302 302 303 303 303 303 303 304 303 303 303 302 302 302 302 302 302 301 301 301 301 301 300 300 300 301
311 314 305 299 293 297 306 293 297 302 303 304 305 305 304 304 305 305 310 308 306 306 306 308 306 305 302 304 306 308 306 306 301 304 302 296 294 296 301 295 287 291 286 284 285 288 291 295 297 300 301 302 301 301 301 302 302 303 304 303 304 303 303 302 302 303 303 303 304 304 304 303 303 303 302 302 301 302 302 303 302 302 301 300 301 301 301
302 308 305 293 292 298 296 303 307 306 307 307 307 307 305 306 304 303 310 309 308 307 304 303 303 305 303 310 305 300 301 303 298 299 298 295 297 294 290 291 290 292 292 289 289 294 295 297 299 300 302 302 302 301 301 300 302 302 303 303 303 303 303 302 302 303 304 303 303 303 304 304 303 302 302 302 301 301 302 302 302 302 301 301 301 300 300
316 302 298 297 303 303 303 306 305 302 306 308 310 308 308 303 303 305 309 308 307 306 307 303 302 299 297 301 298 297 296 300 291 290 296 294 290 287 288 285 286 285 293 295 294 296 297 300 303 302 302 302 302 301 301 301 302 302 301 302 302 303 302 302 302 303 304 304 303 302 303 304 303 303 302 302 300 301 302 303 302 302 302 301 300 300 300
304 303 306 302 303 305 308 308 306 303 307 310 309 310 307 305 302 306 309 304 306 307 306 304 304 299 298 297 292 294 293 298 296 294 293 290 292 292 290 285 288 288 292 297 298 299 300 302 304 301 301 301 302 301 301 301 302 303 303 302 302 303 302 301 302 302 302 304 304 303 304 304 303 302 303 302 302 303 303 302 302 301 301 302 301 300 300
311 303 304 310 304 303 305 301 302 302 304 306 306 308 308 303 302 305 308 307 307 305 301 297 296 295 292 292 291 287 289 298 296 293 292 291 296 293 289 288 292 295 298 300 300 301 302 303 301 301 301 301 301 301 301 302 302 302 304 303 304 303 302 301 301 300 301 302 303 302 302 303 303 304 304 305 304 302 302 302 303 302 302 301 301 300 300
299 297 303 308 310 309 308 308 309 309 307 308 309 310 307 306 306 306 308 307 306 300 297 300 297 293 290 289 292 297 299 296 292 293 291 295 298 293 293 294 296 298 299 299 300 301 302 303 304 303 302 302 301 302 302 303 302 302 302 303 302 302 301 301 301 300 301 300 301 301 303 304 306 304 305 304 303 301 300 300 302 303 302 302 302 301 301
Wind_Speed
18 16 17 17 17 16 17 18 18 17 19 13 11 10 4 5 6 4 13 14 10 4 7 4 5 6 5 4 4 1 3 4 3 4 4 2 2 3 3 4 6 2 5 5 7 6 7 7 7 4 2 4 3 5 6 6 6 6 3 4 1 4 7 8 11 11 15 22 17 11 9 9 9 12 8 12 21 19 16 13 8 11 13 14 11 12 7
17 16 17 16 16 15 15 17 17 16 14 11 11 7 4 3 5 4 11 16 8 3 5 5 6 6 6 4 6 4 6 6 2 3 5 5 1 2 2 1 4 4 4 6 9 5 7 2 5 6 3 3 7 5 4 4 4 4 5 5 7 6 5 8 9 9 9 12 14 15 7 7 13 12 13 10 8 7 6 4 2 8 12 14 11 13 8
17 18 15 14 14 14 14 15 16 15 13 12 8 6 4 4 3 3 7 11 12 8 6 5 5 5 6 5 5 3 3 6 6 4 5 3 3 4 2 3 5 6 7 8 8 8 8 8 6 7 3 4 3 3 3 2 5 2 7 7 6 6 7 4 9 13 12 12 15 15 14 16 12 16 15 4 11 14 9 14 10 7 7 12 12 11 6
17 17 15 14 12 13 14 14 15 15 12 13 7 4 4 5 4 5 5 5 8 9 5 6 5 5 4 5 5 4 3 3 5 7 3 6 2 3 2 3 3 4 5 5 4 5 5 7 4 4 6 5 2 2 5 3 6 5 6 8 6 5 7 9 10 11 12 6 11 8 7 7 11 15 11 10 10 9 11 13 18 17 12 13 12 11 7
17 16 15 13 11 13 14 13 14 14 13 11 7 4 2 3 5 6 5 2 8 7 7 7 5 5 4 2 4 4 4 3 4 5 2 4 4 2 3 3 3 2 5 3 5 6 6 4 7 8 7 4 5 4 4 5 6 3 6 6 5 5 9 12 14 18 18 17 15 13 13 12 12 9 7 7 8 8 13 16 18 14 13 19 15 15 14
17 17 16 14 12 12 13 13 13 14 14 16 8 4 5 2 3 4 3 3 5 6 7 6 6 6 4 5 1 4 3 4 3 1 2 2 1 3 4 1 1 2 3 4 5 3 7 8 6 4 5 7 6 7 5 8 3 5 7 2 6 7 9 11 13 17 19 20 17 15 13 12 12 12 11 9 8 9 12 16 20 14 14 16 14 1 6
15 16 17 15 13 11 11 12 11 13 16 13 7 3 5 5 4 5 1 1 4 6 5 5 5 7 5 4 5 4 4 4 3 4 4 3 1 2 2 1 2 3 4 4 5 5 7 3 4 6 8 9 9 8 6 5 4 6 6 4 4 6 9 11 12 16 16 19 21 17 17 15 15 14 14 13 12 12 12 12 13 14 9 10 8 7 10
15 16 16 14 13 11 10 11 10 11 16 13 4 6 3 4 3 4 4 5 5 4 4 4 3 5 4 1 5 3 4 4 4 2 3 4 2 2 3 3 4 4 5 6 7 5 7 9 11 8 9 10 8 7 7 7 6 5 6 5 5 6 7 8 9 10 14 16 18 17 17 16 17 16 16 17 15 14 14 12 13 13 13 12 14 14 13
15 16 15 15 13 10 10 10 9 9 11 5 6 7 6 3 4 2 1 3 4 3 3 3 3 4 4 3 5 4 4 5 4 4 2 5 5 3 4 4 7 6 6 7 9 8 9 10 12 12 12 12 8 8 4 4 5 5 5 4 6 7 8 8 10 11 11 12 15 17 16 17 18 19 18 17 17 16 13 13 11 13 13 11 13 14 13
15 15 15 15 13 11 10 9 7 7 6 2 3 5 4 2 2 3 3 2 2 2 3 3 1 5 4 4 5 4 4 3 4 3 3 2 1 3 5 6 8 7 7 7 7 8 10 12 13 12 13 14 14 13 14 13 11 9 8 6 7 7 7 8 8 10 11 10 12 12 13 12 16 19 18 17 17 14 12 13 11 10 9 13 12 12 0
14 14 14 14 14 13 12 9 7 5 5 4 4 3 3 3 3 2 2 1 4 4 2 4 4 4 4 2 5 3 4 4 2 4 0 3 3 4 6 8 8 7 7 7 8 10 12 13 15 14 15 18 18 15 16 18 16 14 11 9 8 9 9 9 8 10 10 10 10 9 11 17 16 9 13 18 19 18 16 13 10 6 9 9 5 5 4
14 14 14 14 13 12 11 8 7 4 4 2 1 1 3 2 1 1 3 3 4 2 3 4 5 3 4 3 4 4 5 5 5 4 8 6 7 5 7 7 6 7 5 8 11 11 14 15 17 16 18 19 19 19 20 20 17 15 14 13 10 11 10 10 9 10 10 8 9 9 14 15 8 4 8 13 15 17 17 3 3 5 1 3 6 6 6
14 14 13 13 12 10 9 7 5 4 4 1 1 1 1 2 2 3 3 2 3 4 2 4 3 3 3 4 5 5 5 6 5 5 7 8 7 5 4 5 7 8 9 11 12 13 12 13 13 13 14 12 13 15 18 20 20 19 15 15 14 13 11 8 9 9 9 10 8 9 11 10 5 3 4 3 7 13 13 8 3 2 2 4 6 4 6
13 13 13 12 11 9 8 6 5 4 1 3 2 1 1 1 2 2 1 3 2 3 3 2 1 4 6 5 5 6 5 4 5 4 5 4 6 6 5 5 7 7 8 8 10 9 8 7 9 8 7 7 8 10 9 10 14 18 20 18 16 17 11 11 10 9 11 9 9 13 10 10 9 8 1 4 7 10 9 7 4 2 1 3 4 4 6
13 13 12 11 10 9 8 5 4 4 1 4 2 1 1 2 1 0 1 3 3 2 1 4 5 5 4 5 5 5 3 5 5 2 3 3 6 4 6 7 6 8 7 7 6 5 7 6 5 6 7 6 5 6 8 7 5 12 17 18 18 16 16 12 11 9 11 10 10 8 10 11 6 5 2 5 7 3 3 2 6 1 2 2 2 3 6
13 12 11 10 9 9 8 6 4 2 2 4 3 1 2 2 2 1 1 2 4 1 4 4 4 5 5 4 5 5 5 5 5 6 4 3 4 6 5 5 5 6 6 5 6 6 4 4 6 7 5 6 6 6 4 6 7 5 11 16 19 18 17 13 12 10 8 11 10 9 9 7 5 7 7 8 6 5 3 3 7 3 1 3 3 4 6
12 11 10 10 10 9 8 6 4 1 1 3 2 0 2 5 4 4 2 2 2 3 3 3 3 3 4 3 2 2 4 4 5 5 4 3 5 6 5 4 4 5 4 6 3 4 4 5 5 5 6 2 5 4 5 3 3 2 8 14 17 16 14 13 11 13 12 10 10 11 8 5 3 7 8 7 7 5 4 10 5 2 3 4 5 5 7
11 10 10 10 9 9 7 5 5 3 1 1 4 0 2 2 2 3 2 1 3 2 1 2 5 3 3 4 4 3 3 3 3 3 5 5 6 4 6 4 5 2 3 6 6 5 4 6 7 6 8 2 1 1 4 2 4 5 9 11 11 14 12 12 14 13 13 14 10 9 9 8 8 11 12 8 7 4 9 10 4 2 4 5 6 6 8
11 10 9 9 8 8 7 5 5 4 2 3 3 3 3 1 3 2 1 2 2 2 3 2 2 4 4 3 4 3 4 4 3 4 5 5 2 7 8 3 4 3 1 5 6 4 4 4 3 3 6 1 2 4 2 4 4 6 10 10 11 13 11 11 11 13 13 12 12 11 9 3 10 10 7 6 4 9 5 4 5 4 4 6 7 7 8
10 9 9 9 8 7 6 5 3 4 1 2 4 2 3 1 2 3 3 2 2 5 4 1 3 4 0 4 3 3 2 5 4 5 5 7 6 9 5 3 3 4 3 4 5 2 3 7 5 2 4 5 3 1 4 1 3 2 5 10 7 8 9 9 12 11 10 9 10 8 10 3 13 14 5 5 5 4 1 5 3 1 5 6 5 6 7
10 9 9 8 7 6 6 5 2 2 2 3 5 2 3 2 1 2 3 3 3 5 2 4 3 5 5 5 6 7 7 6 3 5 6 8 6 6 5 6 8 6 4 5 5 5 3 6 6 3 2 3 5 4 10 6 2 8 6 3 2 3 6 6 9 9 10 10 10 7 3 7 9 9 6 6 4 3 4 5 2 3 3 5 5 6 7
8 8 8 7 6 6 6 4 2 2 0 3 4 1 1 2 1 0 1 2 5 5 6 7 6 7 6 7 8 8 9 10 8 7 7 8 5 6 6 6 6 4 3 4 4 2 1 3 4 4 7 5 3 6 9 4 5 3 5 4 3 2 2 2 4 1 6 5 4 5 9 8 8 6 2 1 1 2 4 5 6 5 5 7 6 7 8
8 8 7 6 6 6 6 3 1 1 0 4 6 1 1 3 2 1 2 5 5 7 8 8 7 6 5 6 7 6 7 7 8 7 7 6 7 5 5 5 4 4 4 2 3 6 5 5 4 4 5 2 5 6 3 5 3 4 4 2 3 5 4 3 5 5 8 12 10 8 9 10 11 5 3 1 2 3 5 6 8 7 7 7 7 9 8
8 7 6 6 6 6 5 4 1 0 1 5 6 1 1 1 0 2 5 4 3 5 6 5 6 1 2 5 2 3 4 5 7 7 5 6 7 5 0 1 3 3 2 4 3 4 5 5 3 2 3 3 6 4 5 4 5 5 3 2 2 5 6 4 4 6 4 3 3 4 9 13 12 7 4 4 3 3 5 8 7 9 10 10 9 9 9
7 7 6 5 5 5 5 4 1 1 2 4 4 1 0 2 3 4 3 2 1 4 4 5 2 5 1 3 4 4 3 5 5 6 7 8 8 6 5 3 5 6 8 8 4 4 2 3 2 1 4 2 3 4 3 3 2 5 4 5 5 0 5 6 4 7 5 4 5 7 12 14 9 5 4 3 5 8 7 8 8 9 11 10 10 9 9
8 7 6 5 5 5 5 5 3 3 3 4 6 2 1 0 1 2 3 2 3 3 4 5 5 3 3 3 6 8 7 5 2 3 6 7 8 8 8 6 7 5 6 5 4 2 2 2 2 3 4 3 3 3 4 4 4 4 4 8 6 9 8 4 8 5 6 7 3 10 15 7 4 2 4 7 8 11 12 11 11 11 11 11 10 9 9
8 7 6 5 5 5 5 5 3 4 3 5 6 3 3 2 3 2 1 2 4 3 4 2 5 3 4 8 7 5 6 4 3 2 2 3 4 5 5 5 6 5 3 1 1 1 2 3 2 4 3 3 4 3 3 1 2 4 5 10 9 6 7 9 7 5 3 5 7 11 8 6 8 12 12 12 12 11 13 12 11 10 11 11 11 10 9
8 8 7 6 5 5 6 6 5 5 4 6 6 4 3 3 4 4 3 2 4 4 5 4 3 5 3 5 7 6 6 5 4 4 3 3 2 2 2 2 2 2 3 2 2 3 4 6 6 3 2 1 4 3 2 1 2 1 7 10 10 6 6 7 7 6 6 9 11 9 9 10 11 12 14 13 13 12 12 12 11 11 10 11 11 11 10
8 8 8 7 6 6 6 6 6 5 5 7 4 4 5 5 4 4 4 2 3 3 4 5 7 6 2 5 3 5 5 7 6 6 6 6 5 3 3 1 3 3 2 2 1 1 2 3 3 5 5 5 4 4 6 7 8 10 11 13 11 9 9 9 9 9 7 10 11 10 9 11 11 12 12 12 11 10 11 11 10 10 9 9 10 9 9
9 8 8 7 7 7 7 6 5 4 6 5 4 4 4 4 4 4 4 3 2 2 3 4 2 4 1 3 3 3 3 3 5 5 7 6 5 4 2 2 2 2 3 3 3 5 4 3 3 4 5 5 3 4 5 7 7 8 10 11 9 10 10 7 7 10 9 11 11 12 11 10 9 10 11 8 10 11 10 10 10 9 8 8 8 8 7
10 9 8 8 7 7 7 6 5 3 5 5 4 5 3 1 4 3 6 4 2 3 3 3 5 2 2 2 1 1 3 2 2 3 2 2 1 1 1 1 0 1 2 2 2 4 2 4 4 8 5 7 4 6 8 8 8 9 14 14 12 11 11 10 9 9 10 10 12 11 6 8 9 11 9 11 13 12 10 9 8 7 5 7 8 7 7
10 9 8 8 7 7 7 7 6 7 5 5 5 4 5 4 4 3 6 4 2 3 3 5 4 4 2 3 4 3 3 2 3 3 2 2 2 1 2 3 2 1 2 3 2 2 4 4 3 6 8 6 3 5 7 9 10 10 14 14 13 12 10 10 10 12 12 12 15 11 10 13 12 12 9 13 12 11 10 11 7 4 4 6 7 6 6
9 7 7 8 7 7 7 7 7 8 5 8 13 9 8 4 2 3 5 3 2 2 2 4 5 3 3 2 1 7 6 4 5 4 3 3 3 1 3 2 2 3 3 3 1 2 3 4 3 5 8 4 3 3 8 9 9 11 13 12 13 12 12 10 8 8 9 11 12 11 12 14 16 15 12 10 10 10 11 10 8 3 4 5 7 6 5
9 8 8 8 7 6 6 4 6 8 8 6 6 3 3 10 6 6 4 3 3 1 2 3 5 4 3 2 5 6 5 4 3 2 5 4 1 4 3 4 1 3 2 3 2 3 1 3 5 5 3 6 4 4 7 9 11 12 13 13 12 13 12 13 12 14 12 10 10 9 10 10 9 8 9 11 11 12 11 9 10 5 3 4 5 6 5
7 7 6 5 6 4 4 7 5 5 5 4 5 3 6 5 2 5 5 3 3 2 2 2 3 5 5 2 3 4 2 3 5 2 6 1 2 4 2 5 2 3 4 2 1 3 3 3 4 5 9 4 6 5 4 10 13 11 12 13 13 12 11 12 13 15 14 12 11 12 11 11 13 13 13 14 13 13 12 10 10 10 6 4 4 4 5
6 2 3 6 7 8 5 4 6 5 5 3 2 7 10 7 6 5 4 3 3 4 3 2 3 5 5 5 5 2 2 5 2 1 2 3 3 2 4 3 6 1 2 2 2 2 3 3 3 5 6 5 6 5 7 9 12 11 11 12 13 12 12 13 14 16 15 14 13 14 15 15 15 14 13 13 13 13 12 11 11 11 9 7 6 5 3
1 7 10 10 7 4 4 3 2 4 3 5 8 9 8 5 3 1 2 3 3 3 4 4 6 5 5 4 2 2 1 3 3 3 3 3 2 1 2 2 4 2 2 3 2 1 1 2 4 3 4 6 5 6 8 9 10 11 12 12 11 11 12 11 13 15 15 15 16 15 16 17 16 15 15 15 15 14 14 14 12 11 11 10 8 6 5
7 9 5 4 4 4 3 4 1 7 13 13 11 6 4 4 2 2 2 3 2 3 4 3 6 5 1 4 4 4 2 1 2 4 3 2 2 3 2 4 1 1 2 1 3 3 1 1 3 3 4 6 5 7 9 9 8 8 9 10 11 11 11 11 12 14 16 16 16 17 17 18 18 17 16 17 16 15 14 12 10 10 9 9 9 8 5
7 3 4 3 3 3 4 5 6 9 5 5 3 2 3 2 2 3 3 2 2 4 4 4 5 3 4 5 2 4 4 4 5 2 3 2 3 2 4 2 1 2 2 3 2 1 2 1 1 1 2 6 8 10 8 8 8 7 8 9 10 12 12 12 11 13 14 14 14 15 15 14 15 16 15 15 15 14 13 13 12 11 10 10 10 10 5
3 4 2 2 3 5 5 4 1 4 3 3 3 3 2 4 3 0 3 3 3 3 3 4 4 4 5 6 7 1 3 4 4 3 3 1 3 2 2 2 2 2 3 3 1 3 3 2 3 3 2 6 7 9 8 7 7 8 8 9 11 12 13 12 12 11 12 13 14 14 14 14 14 13 14 15 15 15 16 15 14 12 11 11 12 11 7
2 2 2 2 3 1 3 5 4 3 3 3 3 3 2 2 5 1 2 3 4 1 4 4 2 4 3 3 3 4 3 4 2 2 3 3 2 3 3 2 2 2 2 2 2 2 2 3 3 3 3 5 7 8 8 7 7 7 7 8 9 10 12 12 12 13 13 13 13 14 14 15 15 14 14 15 14 14 14 14 15 15 15 14 13 13 10
2 3 3 2 2 1 3 4 4 3 3 3 3 2 2 2 1 3 3 3 2 2 3 3 4 6 4 2 3 4 1 1 2 2 2 3 2 2 4 1 1 2 2 3 0 1 2 2 3 2 3 5 6 7 7 7 7 7 8 8 9 10 11 11 11 12 12 13 13 13 14 15 16 14 14 14 15 14 15 15 17 17 16 15 14 13 13
3 3 3 3 2 3 3 3 4 3 1 1 1 2 2 2 1 4 2 3 1 3 1 2 3 3 1 1 1 1 2 0 2 2 3 1 2 2 4 1 2 2 1 1 1 2 2 2 2 2 2 4 5 7 7 7 6 6 7 8 8 9 10 11 11 12 12 12 13 13 13 14 14 14 14 14 14 15 15 16 16 15 15 14 13 15 14
2 2 3 2 2 2 2 2 3 2 2 1 1 3 5 6 4 1 5 2 1 4 1 5 4 4 4 4 2 1 2 2 2 2 3 0 2 3 2 2 1 1 0 2 2 2 2 2 3 3 2 2 4 6 7 6 6 5 6 7 8 9 10 11 12 12 13 12 12 11 11 13 14 14 14 13 14 15 15 15 15 16 15 14 14 15 15
3 2 1 1 1 1 1 1 2 1 3 2 2 6 6 9 8 7 7 4 3 5 5 4 4 4 5 3 1 1 2 1 3 3 2 2 4 4 4 2 2 2 2 2 3 2 1 3 1 2 1 3 4 5 6 6 5 5 5 6 8 9 10 11 11 11 11 11 12 12 12 13 14 14 15 15 14 14 14 15 14 14 14 15 14 14 14
3 1 1 2 3 1 2 1 0 2 3 3 6 8 9 8 6 6 6 6 7 7 7 6 5 4 4 2 4 1 3 2 4 3 2 2 4 3 1 2 2 4 3 3 1 4 3 4 3 1 1 2 3 5 5 6 5 4 4 6 6 8 9 10 11 11 10 10 11 12 13 13 13 14 14 15 14 14 14 14 14 14 14 15 16 15 14
2 2 1 1 3 2 2 2 3 3 7 8 9 8 9 10 8 5 4 4 7 4 4 5 4 5 5 2 2 3 3 2 4 0 2 4 3 2 0 4 2 3 2 3 3 3 3 2 1 1 1 1 2 4 5 6 5 4 3 5 6 7 8 9 10 10 10 10 11 12 12 12 12 13 13 14 14 14 14 15 15 15 14 14 14 14 14
1 0 0 2 3 2 4 4 3 7 6 8 5 7 8 6 7 7 7 6 7 6 5 4 3 2 4 3 2 3 3 2 4 1 2 4 3 3 2 3 4 3 1 3 3 3 2 1 2 3 2 2 2 3 4 5 5 5 4 5 6 8 8 9 9 10 10 11 11 11 11 11 12 12 13 13 14 14 14 14 13 13 13 13 13 14 14
3 1 1 2 3 4 6 6 7 9 8 8 7 4 3 4 2 6 4 6 7 4 3 2 1 2 1 1 4 3 3 2 2 0 0 2 2 2 2 3 3 5 1 2 3 2 2 3 4 3 3 3 2 1 2 3 5 4 5 5 6 6 7 8 10 10 10 9 9 10 10 10 10 11 11 12 12 12 13 13 14 13 13 13 13 14 14
2 1 2 2 6 6 4 6 7 8 8 6 2 1 2 2 5 4 2 5 4 3 1 2 1 2 2 3 2 2 2 2 3 1 2 4 4 4 3 4 3 3 4 0 1 1 2 4 4 4 4 3 3 2 3 3 3 3 4 5 6 5 6 9 9 10 9 8 9 9 10 9 9 10 11 11 11 11 12 13 13 14 13 13 13 13 14
1 1 3 5 7 7 8 9 10 11 11 10 8 1 1 2 2 4 1 3 5 2 2 2 1 1 2 2 2 1 0 3 3 2 4 4 1 2 2 4 5 4 3 1 0 2 3 4 4 5 4 4 3 3 2 3 3 3 4 4 3 4 6 8 9 9 9 9 9 9 9 8 7 8 9 9 10 11 11 12 12 12 12 12 12 12 12
1 2 4 3 4 6 6 7 5 6 8 10 7 2 1 2 5 4 2 4 4 4 2 2 1 1 1 1 2 2 1 1 2 4 5 4 2 4 4 5 4 3 1 2 3 3 3 4 5 5 5 5 3 2 3 3 2 3 3 3 4 5 6 6 7 8 9 9 10 9 8 8 7 7 7 9 10 11 11 11 11 12 11 10 10 11 11
Wind_Direction
339 334 339 341 336 336 334 338 342 347 344 351 348 312 299 15 30 4 345 344 320 305 86 91 76 74 82 162 104 122 98 2 30 341 358 261 350 288 305 353 290 212 315 306 289 290 278 281 259 317 267 279 17 34 343 333 304 304 250 235 119 281 248 242 248 268 275 278 279 277 284 295 283 233 262 226 214 217 226 235 253 249 215 212 221 233 233
339 336 343 338 337 334 335 338 342 346 359 348 335 321 5 332 10 23 13 354 322 329 60 76 80 87 106 81 90 63 41 6 39 15 33 353 313 316 316 225 6 3 351 299 288 321 288 162 266 233 167 263 73 333 326 351 311 346 24 300 30 283 200 242 266 249 222 245 248 236 231 284 244 238 216 227 245 249 251 311 289 251 235 229 214 230 212
338 338 342 338 335 336 334 341 339 342 351 347 337 348 325 291 209 57 44 24 26 57 14 58 88 85 65 70 57 61 102 31 13 352 25 3 1 274 286 317 307 294 294 287 287 286 285 294 264 298 296 284 73 346 339 312 301 338 17 330 321 281 278 291 238 228 226 208 211 216 212 217 222 237 227 229 234 230 228 235 228 247 238 258 241 225 218
339 341 341 337 338 337 340 341 339 337 345 341 326 2 295 359 1 359 54 40 71 72 51 37 65 85 101 90 46 35 52 82 56 322 70 0 324 5 322 322 276 344 313 281 273 264 249 263 303 300 274 274 245 76 308 288 284 347 330 301 282 270 277 258 258 268 262 321 348 341 332 322 231 204 225 225 225 244 246 242 232 230 228 237 235 268 249
339 344 341 340 344 341 341 343 337 336 334 341 323 305 332 337 36 0 15 357 41 58 36 54 40 63 327 64 357 45 22 6 101 357 318 35 347 43 18 28 313 7 313 334 298 286 294 287 285 285 297 297 292 280 259 265 260 282 277 256 278 259 261 250 254 259 266 278 284 304 307 287 289 291 255 240 219 223 227 223 228 235 246 237 222 228 247
340 340 341 343 344 341 340 341 340 335 332 328 313 352 357 29 69 48 355 354 23 22 41 29 62 60 49 84 315 38 8 22 12 99 92 344 3 277 149 237 76 309 328 311 283 309 304 279 274 309 286 297 294 295 257 252 206 208 263 235 248 269 261 265 262 256 264 271 273 279 286 281 281 276 277 264 233 222 226 228 234 216 227 233 219 221 281
342 339 341 341 340 344 340 340 342 339 325 322 320 22 49 46 79 56 277 104 46 49 48 35 56 61 45 84 22 44 29 34 36 325 318 296 201 327 292 305 323 295 291 285 291 297 293 278 310 299 314 304 311 292 290 236 212 230 242 222 229 256 258 270 262 269 265 272 275 267 261 262 260 254 255 259 256 244 234 235 234 229 234 245 281 266 274
338 337 338 343 342 348 344 340 347 340 327 309 45 36 22 48 21 82 66 80 75 54 59 53 61 65 16 31 43 9 12 11 357 341 300 291 230 265 256 287 290 284 259 248 263 287 288 293 290 297 300 294 277 291 288 287 261 258 260 259 214 244 254 265 282 289 274 268 268 265 255 254 257 255 252 252 253 249 239 238 232 236 242 237 242 259 266
340 335 338 343 342 347 346 345 353 341 335 26 31 58 31 52 46 359 353 115 66 71 51 63 58 62 49 40 30 355 31 3 353 307 308 283 286 240 282 312 300 281 266 258 262 275 280 274 274 284 280 280 292 290 285 280 278 242 252 241 238 229 262 278 279 276 272 267 267 259 257 254 254 255 250 246 242 238 229 227 222 224 222 217 224 234 237
338 335 339 341 341 344 345 346 353 344 324 6 4 61 27 34 10 343 320 66 315 37 99 55 207 58 44 4 32 352 12 344 354 309 86 315 268 279 288 304 301 292 274 271 287 299 291 288 288 287 282 275 273 263 260 258 262 269 257 247 254 233 249 261 264 266 269 278 267 259 255 264 254 243 241 237 238 244 240 229 225 240 247 224 219 223 188
335 335 338 341 340 343 343 344 351 331 329 31 2 48 28 27 31 347 309 250 91 47 68 67 39 57 34 17 336 334 348 342 357 315 121 280 263 259 275 284 292 301 305 320 320 302 291 288 285 277 271 266 263 258 255 252 247 248 253 246 239 244 245 251 259 267 272 289 289 276 245 235 237 247 235 223 226 225 232 228 196 201 213 241 279 318 337
334 337 339 340 340 344 348 348 352 351 304 47 329 351 12 0 276 285 340 11 69 49 42 47 14 29 350 354 321 340 323 327 314 282 282 287 294 297 285 275 270 277 1 320 306 304 298 283 273 267 258 255 255 256 254 251 245 236 235 241 239 236 236 245 247 256 264 273 277 269 240 236 244 267 251 242 228 219 227 195 140 162 249 289 277 269 316
334 338 337 339 343 350 358 354 348 358 313 305 258 24 37 357 346 18 14 345 44 38 53 56 38 34 1 338 335 325 323 307 291 280 272 276 284 285 280 287 277 297 319 311 315 307 304 302 295 285 276 272 268 262 253 246 243 235 231 222 226 226 223 234 240 247 258 258 245 250 241 242 240 255 265 269 252 223 141 113 121 198 316 308 269 286 312
334 337 339 340 347 358 7 358 344 351 319 289 270 113 157 336 329 63 43 316 16 51 32 133 109 22 356 359 331 327 310 307 313 286 281 270 292 293 287 272 294 304 303 309 295 299 299 307 310 303 287 259 251 254 250 263 253 240 226 217 216 222 223 223 239 227 245 240 240 242 277 264 241 213 202 233 212 158 176 189 130 130 241 320 287 284 290
336 338 342 343 349 1 4 359 349 335 260 244 272 170 165 169 215 356 249 290 336 3 343 17 7 7 337 343 346 326 331 335 318 321 304 302 269 282 291 295 293 295 300 297 300 314 306 304 296 311 311 304 319 320 325 274 275 242 225 214 207 208 216 210 229 231 231 244 245 247 246 250 228 96 96 355 13 328 4 300 130 195 89 344 318 321 334
334 339 344 348 353 355 359 3 344 336 297 241 252 204 151 159 154 148 284 341 323 323 62 14 345 336 331 346 353 336 340 325 335 295 234 170 275 298 306 305 297 296 282 293 309 296 301 301 310 320 321 312 317 299 281 337 295 216 209 203 203 202 211 220 222 236 228 230 241 236 241 235 95 49 8 13 344 334 317 234 209 117 274 36 347 5 355
335 341 345 351 354 353 2 5 352 345 259 218 299 45 102 153 169 174 163 163 222 317 16 1 335 324 315 320 266 255 358 341 343 338 331 1 340 321 304 284 298 288 287 287 223 284 311 305 306 287 286 253 268 271 309 256 251 193 184 196 200 199 204 212 223 232 234 236 229 236 223 258 39 349 352 338 332 331 263 225 193 73 29 19 26 20 7
338 344 346 347 349 356 10 20 1 19 316 285 282 309 129 169 205 188 200 239 292 310 33 339 314 317 351 359 310 343 301 302 282 292 278 311 297 325 336 303 290 326 281 301 358 318 315 308 304 309 296 190 242 347 258 55 297 210 181 188 186 197 201 206 217 219 229 235 250 256 267 264 13 346 343 346 320 245 205 222 79 47 43 27 27 28 13
337 343 344 346 351 1 12 18 15 5 34 253 267 228 119 187 169 199 212 230 247 312 57 281 294 288 308 289 277 305 305 315 295 286 312 305 343 328 309 337 334 331 301 338 328 315 309 289 231 260 286 293 162 258 317 252 241 222 176 175 191 198 198 205 216 224 226 229 235 241 264 341 1 341 341 15 291 205 211 67 266 331 32 27 34 19 14
335 342 345 345 349 1 11 17 17 3 58 227 288 3 63 221 192 213 237 295 306 298 301 280 220 255 171 289 303 257 229 227 256 287 298 307 346 322 289 210 147 293 299 0 322 6 282 308 327 291 264 307 306 302 280 249 348 359 197 184 199 184 196 198 210 220 235 237 240 234 244 96 4 336 282 32 281 39 280 279 255 30 7 349 18 17 4
336 341 341 341 347 355 8 20 20 8 22 191 264 229 148 91 216 211 242 276 293 293 102 98 292 269 276 275 280 287 280 288 293 284 295 300 330 318 341 356 345 338 341 350 331 336 326 308 335 310 292 282 319 302 340 326 79 39 17 161 131 1 225 215 222 223 231 217 221 229 358 335 352 358 355 18 50 35 353 338 336 16 359 355 337 8 1
334 341 336 337 341 347 353 2 28 17 8 162 254 226 201 96 355 330 281 262 252 252 321 341 315 287 276 268 275 277 280 278 270 273 282 291 302 306 319 318 332 343 344 327 319 296 312 329 292 304 324 320 289 324 322 355 65 360 0 350 200 31 313 337 277 296 254 257 261 355 334 327 339 324 342 233 20 349 343 340 325 322 349 337 336 335 344
330 331 333 328 337 339 343 341 343 65 303 164 242 289 322 144 170 192 224 250 244 265 271 264 252 258 236 238 245 264 270 274 273 251 242 257 285 293 300 322 347 357 325 31 308 304 303 312 299 312 295 320 328 318 344 14 27 20 357 19 294 299 324 305 257 269 301 282 271 292 305 314 321 306 266 222 233 253 313 326 317 319 318 320 323 327 321
326 327 325 331 331 336 335 332 260 247 227 188 274 217 217 244 296 237 222 243 294 306 234 226 260 256 339 332 318 224 236 243 243 257 225 216 256 281 168 95 319 293 281 309 333 309 310 301 293 315 292 326 329 329 355 19 30 327 310 341 308 281 301 295 282 314 320 276 100 282 310 315 307 281 212 229 240 311 327 314 307 305 308 312 317 313 313
318 326 322 321 328 325 334 322 312 230 207 170 225 135 318 202 227 250 300 325 330 338 356 163 165 35 341 301 253 285 288 277 252 232 212 203 229 265 317 352 322 319 315 322 322 287 213 300 296 290 315 322 330 347 0 328 62 357 1 12 329 244 330 278 271 290 272 301 319 313 317 302 286 241 201 230 319 324 321 312 303 298 298 301 308 309 311
313 314 316 313 318 320 314 320 287 251 211 230 271 254 237 34 162 254 280 298 269 282 324 28 80 117 321 337 22 349 339 312 302 204 207 213 217 246 277 287 289 284 279 289 281 333 332 301 276 279 319 3 1 327 340 346 295 309 10 9 330 302 311 352 317 288 288 291 310 338 317 283 170 164 348 312 310 314 314 309 306 301 303 299 300 307 308
308 309 303 304 304 310 307 298 253 224 238 207 222 220 232 180 197 231 290 327 295 205 232 14 24 64 32 27 23 9 21 18 57 86 152 197 220 233 247 267 286 305 303 251 90 291 239 256 332 338 320 336 321 282 275 350 12 12 8 357 341 349 11 338 329 335 348 3 342 338 330 317 309 314 314 313 314 311 306 303 300 301 299 300 301 302 305
304 302 297 291 291 292 297 289 271 244 216 230 254 249 244 236 193 214 217 241 305 341 339 323 341 17 266 33 27 35 32 65 68 86 92 111 161 186 235 269 293 356 44 23 63 18 21 23 23 350 307 337 316 341 313 167 180 47 8 359 343 358 345 4 356 333 321 344 340 326 312 296 293 304 312 311 310 306 298 300 298 297 298 298 298 300 308
300 297 291 285 281 280 282 289 279 256 202 242 253 257 245 234 230 193 214 215 277 295 291 284 270 266 20 44 10 63 50 47 77 95 103 109 117 127 120 75 54 44 80 69 111 75 47 48 17 18 13 350 280 358 351 23 29 24 1 341 347 353 357 12 356 337 328 343 331 327 310 307 313 315 314 310 306 302 298 295 293 289 295 296 291 289 295
297 296 289 281 276 272 278 281 269 221 213 234 262 249 244 164 192 200 182 211 236 306 292 304 281 84 209 212 78 86 100 97 79 83 88 106 110 116 113 78 63 9 11 22 1 34 36 25 39 47 39 357 3 7 27 17 28 18 355 338 334 345 357 360 354 355 336 337 331 324 313 320 335 327 312 316 335 322 303 295 294 292 293 295 292 287 287
296 289 285 278 272 269 269 273 248 200 225 249 262 263 305 22 124 183 148 200 219 273 297 267 288 13 221 151 238 108 103 121 108 90 115 100 114 127 147 306 60 298 296 342 10 37 7 33 18 37 45 34 359 39 30 24 21 3 354 349 347 346 349 354 352 346 338 341 335 325 323 352 344 338 340 346 335 329 317 311 301 295 302 292 283 281 285
296 289 279 276 271 264 260 258 233 197 235 253 269 319 359 19 13 94 155 217 184 243 278 298 271 225 276 178 193 201 242 185 213 207 191 226 208 231 238 257 337 17 316 303 353 295 21 12 359 23 31 11 341 48 35 29 16 357 341 350 353 350 346 351 356 354 352 350 349 349 353 354 356 355 326 322 326 328 329 323 317 316 304 282 281 280 281
292 288 274 272 267 263 253 245 221 224 256 331 329 288 251 219 99 173 182 201 215 271 301 274 296 337 273 94 165 211 206 227 227 246 212 176 249 264 258 218 268 261 161 250 15 352 1 328 336 29 41 20 33 37 29 22 356 348 352 352 353 351 352 351 352 355 355 357 4 5 345 340 340 342 335 330 331 336 340 333 327 321 291 279 278 281 296
286 274 265 262 256 252 245 232 212 231 272 274 253 222 141 140 163 240 234 216 280 312 266 285 305 313 314 114 250 129 196 247 246 222 257 151 262 257 276 279 229 267 145 314 57 265 122 294 357 355 58 39 35 15 21 5 360 352 353 355 356 354 356 354 358 360 2 359 355 353 341 336 340 338 344 355 353 351 348 346 341 328 280 286 283 288 284
302 285 266 248 224 212 186 187 183 216 269 273 270 62 100 151 143 172 220 236 286 231 249 252 277 298 300 212 257 109 228 237 253 190 275 92 135 277 289 268 160 257 119 224 272 338 341 12 313 334 22 9 21 17 4 353 354 350 354 356 357 355 357 357 359 358 356 359 357 355 351 354 1 5 2 360 359 354 349 346 345 344 345 332 314 297 291
312 334 153 170 160 177 156 196 232 244 231 250 60 98 115 141 162 189 216 251 272 308 289 317 285 288 305 327 355 96 210 246 246 254 279 326 225 184 260 270 263 186 67 244 290 314 1 1 292 23 2 17 23 0 354 355 350 350 357 359 357 359 4 3 351 351 354 0 3 359 3 9 13 6 1 1 358 357 354 350 352 351 350 357 344 327 298
68 124 136 156 163 175 215 243 156 225 356 59 94 108 129 162 104 215 190 247 213 242 271 291 268 281 310 330 252 96 259 274 120 229 184 217 276 129 234 233 270 66 217 213 217 284 49 345 343 29 28 18 5 5 358 358 3 356 353 353 358 359 6 4 359 355 353 357 5 8 9 9 10 8 4 3 1 357 359 358 353 347 337 337 337 329 320
137 174 176 180 207 251 238 178 176 100 105 117 136 155 165 221 199 174 193 230 197 211 228 234 260 285 287 280 320 79 250 255 177 269 185 154 239 191 190 252 342 278 265 330 41 45 273 338 13 27 44 29 19 11 355 5 3 357 352 354 355 1 6 9 8 1 359 359 8 9 7 9 10 9 4 359 358 357 357 355 350 344 340 338 332 325 312
199 193 225 224 268 287 358 81 108 159 172 142 231 232 194 181 212 218 196 183 175 223 199 228 266 286 289 271 223 135 281 319 287 225 281 110 292 230 159 259 113 269 289 257 114 234 256 163 116 334 34 13 3 5 354 1 1 3 349 0 359 359 7 13 15 12 11 14 10 11 10 10 4 1 2 360 358 359 360 2 1 354 348 346 343 336 337
217 222 264 244 295 53 82 98 197 200 188 222 197 248 255 172 236 191 133 225 207 200 176 239 258 286 302 298 311 277 190 242 286 308 2 106 158 295 23 272 120 252 283 318 63 195 296 332 353 331 27 12 358 359 359 1 1 357 355 3 1 0 6 14 17 19 19 21 18 17 16 15 13 7 5 4 1 359 1 4 5 359 358 353 352 350 357
207 255 224 289 44 119 127 149 181 225 227 219 224 213 238 216 209 279 221 262 292 110 194 289 268 260 215 268 267 291 137 262 307 309 277 277 116 277 238 245 55 280 286 312 101 211 274 300 335 347 15 5 356 359 1 5 6 0 5 5 5 3 7 13 17 22 20 19 17 18 16 17 18 14 11 9 8 6 4 3 5 5 4 2 358 356 353
10 345 26 50 70 109 156 192 208 227 217 239 272 242 215 272 167 204 223 282 10 346 183 225 280 322 351 273 298 311 124 25 324 290 283 267 131 249 289 334 155 276 304 39 338 244 299 307 330 353 29 359 6 3 10 360 7 359 6 5 10 10 9 13 17 28 26 23 18 16 15 16 19 19 16 13 10 10 9 9 10 9 9 6 8 15 16
243 259 279 261 215 216 214 248 193 225 259 218 215 274 238 257 255 322 293 192 115 251 42 202 281 293 141 258 223 193 353 52 263 200 234 270 113 252 269 260 228 253 324 86 264 281 300 328 322 358 20 346 359 360 10 2 3 4 6 8 7 12 9 11 18 24 30 27 23 19 18 18 20 20 19 18 16 14 13 13 14 13 11 12 11 18 20
191 208 215 193 244 202 203 263 171 221 249 233 230 284 310 317 333 210 278 334 96 249 209 300 339 321 321 142 265 143 176 184 232 270 255 115 265 244 227 259 288 69 151 254 276 307 324 310 321 340 339 333 346 358 4 358 356 1 16 13 10 16 15 15 12 16 22 23 24 23 24 23 23 25 24 23 21 19 16 17 15 15 14 13 17 20 23
228 211 227 254 234 166 150 267 194 227 260 269 240 305 315 318 330 320 323 19 304 309 324 279 297 277 301 103 216 145 290 335 114 260 272 200 249 238 257 313 357 247 269 294 314 321 286 302 101 253 306 347 356 358 360 358 350 1 8 24 25 11 17 18 18 13 17 16 19 21 26 23 23 25 27 26 25 24 21 20 18 18 19 22 21 22 20
212 280 250 272 299 247 218 278 184 260 254 295 296 320 310 309 323 352 358 352 318 319 317 334 316 289 285 149 302 359 167 219 241 223 263 273 282 294 13 312 273 288 301 296 284 303 317 341 357 3 24 346 358 0 0 358 354 348 351 17 26 17 13 14 18 19 15 9 13 17 25 26 26 24 27 28 26 26 26 26 23 23 22 27 31 29 25
268 216 256 271 271 250 217 265 259 297 322 316 310 327 354 10 10 357 340 339 299 291 304 312 311 315 314 352 253 194 198 199 276 5 271 273 292 328 218 285 292 281 292 302 294 295 323 14 29 100 111 53 359 12 353 12 5 1 355 4 11 22 24 17 8 10 11 13 13 14 20 26 28 27 28 30 32 28 27 28 27 27 27 28 28 32 32
258 304 261 256 256 240 248 263 312 298 291 299 340 66 62 37 1 328 332 311 294 306 309 293 266 233 241 165 223 278 276 188 272 215 4 323 313 292 323 291 269 282 296 262 281 351 11 21 113 129 127 110 59 4 15 23 24 23 8 12 17 21 20 15 8 8 6 7 11 16 17 17 27 29 29 32 33 34 33 32 33 30 29 29 30 32 33
326 273 253 263 271 298 288 313 310 304 311 357 44 46 57 88 301 275 317 306 293 291 315 302 0 292 273 120 277 279 255 131 285 16 290 259 270 265 264 282 307 299 295 244 318 8 19 95 116 120 123 112 94 36 34 25 22 13 20 20 27 26 23 19 16 12 9 9 6 9 16 15 21 29 32 35 36 39 37 37 37 38 37 36 36 34 36
226 227 227 242 263 262 271 276 278 300 331 38 340 294 85 57 303 293 8 310 314 297 177 130 231 264 321 296 282 281 324 19 312 9 318 258 265 282 299 290 278 267 322 11 308 43 119 137 142 142 131 124 102 67 39 35 35 7 17 20 27 23 19 21 18 16 16 10 7 358 5 19 18 25 30 36 39 39 40 40 42 40 39 39 40 40 40
227 267 266 266 284 309 319 315 330 328 329 340 344 3 276 184 258 280 314 303 287 263 111 24 27 353 304 273 272 282 332 0 325 251 248 281 314 281 290 278 312 327 336 45 61 147 137 145 164 151 143 133 112 77 54 27 33 23 28 30 30 20 20 19 17 12 12 14 7 358 360 11 13 16 28 39 40 39 43 44 43 48 49 45 42 43 43
216 237 272 272 256 277 297 305 328 319 317 332 330 113 188 230 204 225 273 266 271 253 195 160 216 245 268 298 346 344 7 260 227 237 260 254 222 290 324 327 329 337 332 194 168 170 160 153 150 148 148 138 127 90 75 58 59 60 52 52 37 26 21 21 18 16 10 6 9 6 359 358 3 17 16 35 38 39 42 43 42 41 48 54 57 52 45